Sanford, NC

3:02 AM EDT on June 24, 2017 (GMT -0400)
Raleigh Executive Jetport

Weather History for KTTA - May, 2013

Change the Weather History Date:

Thursday, May 9, 2013

  Actual Average (KHRJ) Record (KHRJ)
Temperature  
Mean Temperature 64 °F -  
Max Temperature 78 °F 76 °F 95 °F (2002)
Min Temperature 51 °F 52 °F 35 °F (1989)
Growing Degree Days 14 (Base 50)    
Moisture  
Dew Point 55 °F    
Average Humidity 72    
Maximum Humidity 99    
Minimum Humidity 40    
Precipitation  
Precipitation 0.00 in - - ()
Sea Level Pressure  
Sea Level Pressure 30.04 in    
Wind  
Wind Speed 2 mph (WNW)    
Max Wind Speed 9 mph    
Max Gust Speed -    
Visibility 8 miles    
Events Fog    
Averages and records for this station are not official NWS values.
T = Trace of Precipitation, MM = Missing Value Source: NWS Daily Summary

Daily Weather History Graph

Daily Weather History Graph

Search for Another Location

Airport or City:

Trip Planner

Search our weather history database for the weather conditions in past years. The results will help you decide how hot, cold, wet, or windy it might be!

Date:

Astronomy

May. 09, 2013 Rise Set
Actual Time 6:16 AM EDT 8:09 PM EDT
Civil Twilight 5:48 AM EDT 8:37 PM EDT
Nautical Twilight 5:14 AM EDT 9:11 PM EDT
Astronomical Twilight 4:38 AM EDT 9:47 PM EDT
Moon 5:58 AM EDT (5/9) 8:03 PM EDT (5/9)
Length of Visible Light 14h 49m
Length of Day
13h 53m
Waning Crescent, 0% of the Moon is Illuminated
May 9
Waning Crescent
May 9
New
May 18
First Quarter
May 25
Full
May 31
Last Quarter

Hourly Weather History & Observations

Time (EDT) Temp. Dew Point Humidity Pressure Visibility Wind Dir Wind Speed Gust Speed Precip Events Conditions
12:15 AM 59.9 °F 58.5 °F 95% 30.00 in 10.0 mi Calm Calm - N/A   Overcast
12:35 AM 59.9 °F 58.6 °F 96% 30.00 in 10.0 mi Calm Calm - N/A   Overcast
2:15 AM 57.4 °F 56.5 °F 97% 29.99 in 0.2 mi Calm Calm - N/A Fog Fog
3:35 AM 54.9 °F 54.1 °F 97% 29.99 in 0.2 mi Calm Calm - N/A Fog Fog
4:15 AM 52.7 °F 52.0 °F 97% 30.00 in 0.5 mi Calm Calm - N/A Fog Fog
4:35 AM 53.6 °F 52.7 °F 97% 30.00 in 1.0 mi Calm Calm - N/A   Mist
5:35 AM 52.3 °F 51.8 °F 98% 30.00 in 3.0 mi Calm Calm - N/A   Scattered Clouds
5:55 AM 51.1 °F 50.5 °F 98% 30.00 in 1.5 mi Calm Calm - N/A   Overcast
7:55 AM 56.5 °F 55.9 °F 98% 30.05 in 10.0 mi Calm Calm - N/A   Clear
8:35 AM 59.2 °F 58.8 °F 99% 30.06 in 10.0 mi Calm Calm - N/A   Clear
9:55 AM 67.3 °F 59.4 °F 76% 30.06 in 10.0 mi NW 3.5 mph - N/A   Clear
10:15 AM 69.1 °F 58.8 °F 70% 30.06 in 10.0 mi NW 6.9 mph - N/A   Clear
10:55 AM 71.4 °F 56.1 °F 58% 30.07 in 10.0 mi WNW 9.2 mph - N/A   Clear
11:35 AM 73.4 °F 55.6 °F 54% 30.06 in 10.0 mi WNW 6.9 mph - N/A   Clear
11:55 AM 73.8 °F 52.9 °F 48% 30.07 in 10.0 mi WNW 8.1 mph - N/A   Clear
12:15 PM 74.5 °F 53.2 °F 47% 30.06 in 10.0 mi West 6.9 mph - N/A   Clear
12:35 PM 75.0 °F 53.2 °F 47% 30.06 in 10.0 mi West 6.9 mph - N/A   Clear
12:55 PM 75.7 °F 52.7 °F 45% 30.06 in 10.0 mi Calm Calm - N/A   Scattered Clouds
1:15 PM 76.1 °F 53.4 °F 45% 30.05 in 10.0 mi WSW 5.8 mph - N/A   Scattered Clouds
1:55 PM 77.5 °F 52.7 °F 42% 30.05 in 10.0 mi WNW 3.5 mph - N/A   Scattered Clouds
2:15 PM 78.4 °F 53.1 °F 41% 30.05 in 10.0 mi WSW 8.1 mph - N/A   Scattered Clouds
2:35 PM 78.8 °F 52.7 °F 40% 30.04 in 10.0 mi NW 3.5 mph - N/A   Mostly Cloudy